AIB280 ZJHK-VHHX

Flight info

Callsign AIB280
Flight time N/A
Altitude 31100
Route SAMAS8ZD SAMAS A202 SIKOU
Aircraft A320/M-SDE3FGHIRWY/LB1

Departure

Time 2026-05-05 19:16
Airport Haikou Meilan International Airport (ZJHK)

Arrival

Time N/A
Airport Hong Kong International Airport Kai Tak (VHHX)
Time Latitude Longitude Altitude Speed Heading
2026-05-05 18:48 19.93815 110.47382 65 ft 0 kts 89°
2026-05-05 18:59 19.93805 110.47391 67 ft 5 kts 162°
2026-05-05 18:59 19.93730 110.47341 68 ft 17 kts 240°
2026-05-05 19:00 19.93664 110.47246 66 ft 15 kts 257°
2026-05-05 19:00 19.93600 110.47194 69 ft 11 kts 193°
2026-05-05 19:00 19.93543 110.47180 67 ft 0 kts 193°
2026-05-05 19:14 19.93516 110.47173 66 ft 13 kts 193°
2026-05-05 19:14 19.93481 110.47115 71 ft 5 kts 276°
2026-05-05 19:15 19.93480 110.47079 71 ft 5 kts 268°
2026-05-05 19:15 19.93480 110.46887 69 ft 63 kts 269°
2026-05-05 19:15 19.93478 110.46178 72 ft 125 kts 270°
2026-05-05 19:15 19.93478 110.45091 98 ft 167 kts 269°
2026-05-05 19:16 19.93447 110.43856 724 ft 167 kts 259°
2026-05-05 19:16 19.93176 110.42648 1384 ft 170 kts 253°
2026-05-05 19:16 19.92839 110.41377 1795 ft 190 kts 251°
2026-05-05 19:16 19.92447 110.39952 2146 ft 212 kts 252°
2026-05-05 19:17 19.92017 110.38367 2508 ft 234 kts 252°
2026-05-05 19:17 19.91558 110.36653 3130 ft 245 kts 253°
2026-05-05 19:17 19.91096 110.34905 3962 ft 246 kts 253°
2026-05-05 19:17 19.90637 110.33151 4828 ft 248 kts 254°
2026-05-05 19:18 19.90181 110.31383 5755 ft 249 kts 255°
2026-05-05 19:18 19.90037 110.29551 6621 ft 252 kts 277°
2026-05-05 19:18 19.90623 110.27791 7451 ft 257 kts 302°
2026-05-05 19:18 19.91855 110.26439 8270 ft 262 kts 326°
2026-05-05 19:19 19.93587 110.25740 9109 ft 268 kts 351°
2026-05-05 19:19 19.95442 110.25762 9931 ft 272 kts
2026-05-05 19:19 19.97337 110.25890 10688 ft 275 kts
2026-05-05 19:19 19.99261 110.26024 11408 ft 278 kts
2026-05-05 19:20 20.01206 110.26157 12131 ft 281 kts
2026-05-05 19:20 20.03167 110.26292 12875 ft 284 kts
2026-05-05 19:20 20.05158 110.26426 13562 ft 289 kts
2026-05-05 19:20 20.07169 110.26682 14173 ft 296 kts 14°
2026-05-05 19:21 20.09006 110.27725 14760 ft 306 kts 38°
2026-05-05 19:21 20.10188 110.29646 15064 ft 326 kts 82°
2026-05-05 19:21 20.09909 110.32000 15656 ft 316 kts 91°
2026-05-05 19:21 20.10489 110.34283 16003 ft 324 kts 76°
2026-05-05 19:22 20.10522 110.36595 16827 ft 316 kts 88°
2026-05-05 19:22 20.10767 110.38897 17567 ft 313 kts 86°
2026-05-05 19:22 20.10862 110.41288 17707 ft 334 kts 86°
2026-05-05 19:22 20.11270 110.43787 17841 ft 353 kts 70°
2026-05-05 19:23 20.12449 110.46124 17973 ft 368 kts 48°
2026-05-05 19:23 20.14415 110.47910 18103 ft 380 kts 27°
2026-05-05 19:23 20.16915 110.48884 18329 ft 387 kts
2026-05-05 19:23 20.19602 110.49054 18727 ft 389 kts 358°
2026-05-05 19:24 20.22323 110.49206 19195 ft 395 kts
2026-05-05 19:24 20.24951 110.50130 19690 ft 404 kts 25°
2026-05-05 19:24 20.27219 110.51924 20176 ft 412 kts 45°
2026-05-05 19:24 20.28916 110.54413 20667 ft 418 kts 56°
2026-05-05 19:25 20.30455 110.57050 21157 ft 421 kts 56°
2026-05-05 19:25 20.32006 110.59723 21640 ft 425 kts 56°
2026-05-05 19:25 20.33570 110.62418 22117 ft 428 kts 56°
2026-05-05 19:25 20.35142 110.65122 22594 ft 432 kts 56°
2026-05-05 19:26 20.36736 110.67858 23057 ft 435 kts 56°
2026-05-05 19:26 20.38340 110.70610 23507 ft 439 kts 56°
2026-05-05 19:26 20.39956 110.73381 23881 ft 442 kts 56°
2026-05-05 19:26 20.41582 110.76169 24258 ft 444 kts 56°
2026-05-05 19:27 20.43218 110.78974 24629 ft 447 kts 56°
2026-05-05 19:27 20.44862 110.81796 25003 ft 449 kts 56°
2026-05-05 19:27 20.46518 110.84637 25383 ft 451 kts 56°
2026-05-05 19:27 20.48177 110.87484 25750 ft 454 kts 56°
2026-05-05 19:28 20.49823 110.90315 26108 ft 456 kts 56°
2026-05-05 19:28 20.51501 110.93201 26426 ft 459 kts 56°
2026-05-05 19:28 20.53184 110.96098 26755 ft 462 kts 56°
2026-05-05 19:28 20.54883 110.99024 27089 ft 464 kts 56°
2026-05-05 19:29 20.56584 111.01957 27429 ft 466 kts 56°
2026-05-05 19:29 20.58294 111.04906 27752 ft 468 kts 56°
2026-05-05 19:29 20.60015 111.07876 28079 ft 471 kts 56°
2026-05-05 19:29 20.61741 111.10852 28398 ft 473 kts 56°
2026-05-05 19:30 20.63472 111.13841 28714 ft 475 kts 56°
2026-05-05 19:30 20.65213 111.16853 29032 ft 477 kts 56°
2026-05-05 19:30 20.66957 111.19871 29336 ft 479 kts 56°
2026-05-05 19:30 20.68714 111.22906 29637 ft 481 kts 56°
2026-05-05 19:31 20.70474 111.25949 29927 ft 483 kts 56°
2026-05-05 19:31 20.71640 111.27972 30084 ft 484 kts 56°
2026-05-05 19:31 20.74005 111.32078 30398 ft 486 kts 56°
2026-05-05 19:31 20.75180 111.34115 30547 ft 487 kts 56°
2026-05-05 19:32 20.76968 111.37209 30761 ft 489 kts 56°
2026-05-05 19:32 20.78760 111.40311 30985 ft 491 kts 56°
2026-05-05 19:32 20.81160 111.44470 31281 ft 493 kts 56°
2026-05-05 19:32 20.82352 111.46540 31417 ft 494 kts 56°
2026-05-05 19:33 20.83942 111.49797 31685 ft 497 kts 65°
2026-05-05 19:33 20.85060 111.53295 31985 ft 498 kts 74°
2026-05-05 19:33 20.85856 111.56909 32279 ft 498 kts 75°
2026-05-05 19:33 20.86647 111.60514 32586 ft 498 kts 75°
2026-05-05 19:34 20.87442 111.64117 32839 ft 498 kts 75°
2026-05-05 19:34 20.88235 111.67708 32905 ft 491 kts 75°
2026-05-05 19:35 20.90538 111.78156 32918 ft 480 kts 75°
2026-05-05 19:35 20.92052 111.85108 32917 ft 480 kts 75°
2026-05-05 19:36 20.93567 111.92052 32921 ft 480 kts 75°
2026-05-05 19:36 20.95091 111.99002 32917 ft 480 kts 75°
2026-05-05 19:37 20.96611 112.05951 32927 ft 480 kts 75°
2026-05-05 19:37 20.98119 112.12911 32914 ft 480 kts 75°
2026-05-05 19:38 20.99621 112.19869 32909 ft 480 kts 75°
2026-05-05 19:38 21.01134 112.26841 32911 ft 480 kts 75°
2026-05-05 19:39 21.02654 112.33813 32910 ft 481 kts 75°
2026-05-05 19:39 21.04147 112.40737 32911 ft 480 kts 75°
2026-05-05 19:40 21.05632 112.47712 32912 ft 480 kts 75°
2026-05-05 19:40 21.07124 112.54676 32910 ft 480 kts 75°
2026-05-05 19:41 21.08621 112.61646 32912 ft 480 kts 75°
2026-05-05 19:41 21.10108 112.68618 32910 ft 480 kts 75°
2026-05-05 19:42 21.11602 112.75591 32916 ft 480 kts 75°
2026-05-05 19:42 21.13087 112.82563 32918 ft 480 kts 75°
2026-05-05 19:43 21.14562 112.89540 32913 ft 480 kts 75°
2026-05-05 19:43 21.16035 112.96480 32921 ft 481 kts 75°
2026-05-05 19:44 21.17522 113.03461 32921 ft 483 kts 75°
2026-05-05 19:44 21.19034 113.10606 32925 ft 497 kts 75°
2026-05-05 19:45 21.20551 113.17853 32145 ft 501 kts 75°
2026-05-05 19:45 21.21317 113.21520 31286 ft 502 kts 75°
2026-05-05 19:45 21.22073 113.25112 30984 ft 489 kts 75°
2026-05-05 19:45 21.22821 113.28677 30150 ft 491 kts 75°
2026-05-05 19:46 21.23566 113.32237 29387 ft 488 kts 75°
2026-05-05 19:46 21.24303 113.35775 28696 ft 484 kts 75°
2026-05-05 19:46 21.25032 113.39277 28051 ft 479 kts 75°
2026-05-05 19:46 21.25756 113.42750 27428 ft 475 kts 75°
2026-05-05 19:47 21.26463 113.46144 26829 ft 470 kts 75°
2026-05-05 19:47 21.27181 113.49599 26237 ft 466 kts 75°
2026-05-05 19:47 21.27880 113.52970 25666 ft 462 kts 75°
2026-05-05 19:47 21.28738 113.56246 24989 ft 450 kts 65°
2026-05-05 19:48 21.30184 113.59106 24073 ft 437 kts 50°
2026-05-05 19:48 21.32195 113.61476 23099 ft 424 kts 36°
2026-05-05 19:48 21.34585 113.63244 22071 ft 412 kts 24°
2026-05-05 19:48 21.37175 113.64470 21193 ft 402 kts 18°
2026-05-05 19:49 21.39713 113.65591 20693 ft 386 kts 18°
2026-05-05 19:49 21.42137 113.66668 20211 ft 371 kts 18°
2026-05-05 19:49 21.44482 113.67709 19714 ft 358 kts 19°
2026-05-05 19:49 21.46752 113.68718 19244 ft 347 kts 19°
2026-05-05 19:50 21.48957 113.69714 18795 ft 344 kts 19°
2026-05-05 19:50 21.51175 113.70722 18341 ft 347 kts 20°
2026-05-05 19:50 21.53404 113.71738 17843 ft 348 kts 20°
2026-05-05 19:50 21.55631 113.72752 17377 ft 347 kts 19°
2026-05-05 19:51 21.57859 113.73761 16932 ft 347 kts 19°
2026-05-05 19:51 21.60082 113.74765 16486 ft 347 kts 19°
2026-05-05 19:51 21.62313 113.75774 16039 ft 347 kts 19°
2026-05-05 19:51 21.64539 113.76785 15592 ft 348 kts 20°
2026-05-05 19:52 21.66770 113.77801 15154 ft 348 kts 20°
2026-05-05 19:52 21.69001 113.78819 14700 ft 349 kts 20°
2026-05-05 19:52 21.71216 113.79828 14253 ft 350 kts 20°
2026-05-05 19:52 21.73437 113.80841 14073 ft 342 kts 20°
2026-05-05 19:53 21.75593 113.81828 13886 ft 334 kts 20°
2026-05-05 19:53 21.77720 113.82800 13675 ft 331 kts 19°
2026-05-05 19:53 21.79831 113.83762 13379 ft 328 kts 19°
2026-05-05 19:53 21.81927 113.84714 13105 ft 326 kts 19°
2026-05-05 19:54 21.84014 113.85662 12831 ft 324 kts 20°
2026-05-05 19:54 21.86082 113.86603 12547 ft 322 kts 20°
2026-05-05 19:54 21.88143 113.87541 12252 ft 321 kts 20°
2026-05-05 19:54 21.90192 113.88478 11973 ft 319 kts 20°
2026-05-05 19:55 21.92230 113.89409 11701 ft 317 kts 20°
2026-05-05 19:55 21.94250 113.90331 11419 ft 315 kts 20°
2026-05-05 19:55 21.96261 113.91248 11147 ft 313 kts 20°
2026-05-05 19:55 21.98257 113.92156 10867 ft 311 kts 20°
2026-05-05 19:56 22.00246 113.93062 10599 ft 309 kts 20°
2026-05-05 19:56 22.02221 113.93966 10330 ft 307 kts 20°
2026-05-05 19:56 22.04186 113.94865 10069 ft 306 kts 20°
2026-05-05 19:56 22.06139 113.95757 9802 ft 304 kts 20°
2026-05-05 19:57 22.08083 113.96646 9513 ft 302 kts 20°
2026-05-05 19:57 22.09362 113.97232 9334 ft 301 kts 20°
2026-05-05 19:57 22.11911 113.98404 8986 ft 300 kts 20°
2026-05-05 19:57 22.13828 113.99285 8725 ft 299 kts 21°
2026-05-05 19:58 22.15550 113.99970 8494 ft 295 kts
2026-05-05 19:59 22.15689 114.00001 8479 ft 295 kts
2026-05-05 20:00 22.17696 113.99974 8219 ft 287 kts 343°
2026-05-05 20:00 22.19502 113.99130 7965 ft 282 kts 321°
2026-05-05 20:00 22.20862 113.97661 7401 ft 285 kts 300°
2026-05-05 20:00 22.21589 113.95700 6908 ft 282 kts 279°
2026-05-05 20:01 22.21660 113.93567 6199 ft 290 kts 267°
2026-05-05 20:01 22.22012 113.91434 5773 ft 289 kts 296°
2026-05-05 20:01 22.23313 113.89907 5648 ft 279 kts 329°
2026-05-05 20:01 22.25160 113.89385 5460 ft 271 kts 358°
2026-05-05 20:02 22.26961 113.89575 5221 ft 256 kts
2026-05-05 20:02 22.28547 113.90267 4998 ft 239 kts 36°
2026-05-05 20:02 22.29777 113.91397 4802 ft 225 kts 45°
2026-05-05 20:02 22.30770 113.92645 4591 ft 214 kts 56°
2026-05-05 20:03 22.31452 113.94004 4423 ft 199 kts 71°
2026-05-05 20:03 22.31756 113.95414 4149 ft 188 kts 88°
2026-05-05 20:03 22.31848 113.96788 3913 ft 178 kts 88°
2026-05-05 20:03 22.31938 113.98107 3706 ft 174 kts 88°
2026-05-05 20:04 22.32027 113.99402 3492 ft 171 kts 88°
2026-05-05 20:04 22.32113 114.00659 3277 ft 163 kts 89°
2026-05-05 20:04 22.32193 114.01824 3125 ft 153 kts 90°
2026-05-05 20:04 22.32268 114.02925 2939 ft 142 kts 89°
2026-05-05 20:05 22.32339 114.03992 2763 ft 139 kts 90°
2026-05-05 20:05 22.32407 114.05010 2594 ft 136 kts 90°
2026-05-05 20:05 22.32474 114.06022 2423 ft 134 kts 89°
2026-05-05 20:05 22.32539 114.07024 2252 ft 133 kts 88°
2026-05-05 20:06 22.32602 114.07994 2096 ft 130 kts 87°
2026-05-05 20:06 22.32666 114.08967 1934 ft 127 kts 88°
2026-05-05 20:06 22.32728 114.09921 1770 ft 128 kts 88°
2026-05-05 20:06 22.32790 114.10883 1595 ft 128 kts 86°
2026-05-05 20:07 22.32852 114.11844 1411 ft 130 kts 86°
2026-05-05 20:07 22.32914 114.12820 1247 ft 130 kts 87°
2026-05-05 20:07 22.32977 114.13799 1069 ft 129 kts 86°
2026-05-05 20:07 22.33039 114.14759 902 ft 125 kts 85°
2026-05-05 20:08 22.33083 114.15703 716 ft 127 kts 87°
2026-05-05 20:08 22.33110 114.16660 640 ft 130 kts 89°
2026-05-05 20:08 22.33095 114.17624 522 ft 130 kts 93°
2026-05-05 20:08 22.32945 114.18592 373 ft 132 kts 109°
2026-05-05 20:09 22.32399 114.19386 109 ft 131 kts 131°
2026-05-05 20:09 22.31804 114.20071 37 ft 110 kts 134°
2026-05-05 20:09 22.31398 114.20532 37 ft 64 kts 133°
2026-05-05 20:09 22.31097 114.20867 38 ft 79 kts 133°
2026-05-05 20:10 22.30503 114.21501 117 ft 149 kts 134°
2026-05-05 20:10 22.29685 114.22301 684 ft 172 kts 136°
2026-05-05 20:10 22.28660 114.22983 1565 ft 175 kts 173°
2026-05-05 20:10 22.27785 114.22199 2401 ft 197 kts 249°
2026-05-05 20:11 22.27965 114.20492 2124 ft 274 kts 299°
2026-05-05 20:11 22.29512 114.18921 1967 ft 334 kts 325°
2026-05-05 20:11 22.31358 114.17498 2188 ft 306 kts 326°
2026-05-05 20:11 22.33080 114.17225 3152 ft 221 kts 21°
2026-05-05 20:12 22.34560 114.17687 2625 ft 225 kts 11°
2026-05-05 20:12 22.35913 114.17126 2237 ft 217 kts 304°
2026-05-05 20:12 22.35941 114.15756 2295 ft 182 kts 222°
2026-05-05 20:12 22.34783 114.15520 2054 ft 176 kts 138°
2026-05-05 20:13 22.34137 114.16612 1536 ft 168 kts 115°
2026-05-05 20:13 22.33532 114.17717 927 ft 169 kts 120°
2026-05-05 20:13 22.32914 114.18773 393 ft 166 kts 126°
2026-05-05 20:13 22.32160 114.19662 66 ft 152 kts 131°
2026-05-05 20:14 22.31529 114.20373 36 ft 98 kts 129°
2026-05-05 20:14 22.31335 114.20614 35 ft 58 kts 131°